Regional Weather Roundup
Issued by NWS

Home | Current Version | Previous Version | Graphics & Text | Print | Product List | Glossary Off
Versions: 1 2 3 4 5 6 7 8 9 10 11 12 13 14 15 16 17 18 19 20 21 22 23 24 25 26 27 28 29 30 31 32 33 34 35 36 37 38 39 40 41 42 43 44 45 46 47 48 49 50

000
ASUS43 KTOP 110459
RWRKS

WEATHER ROUNDUP FOR KANSAS
NATIONAL WEATHER SERVICE GOODLAND KS
1200 AM CDT FRI JUL 11 2014

NOTE:  "FAIR" INDICATES FEW OR NO CLOUDS BELOW 12,000 FEET WITH NO
SIGNIFICANT WEATHER AND/OR OBSTRUCTIONS TO VISIBILITY.

KSZ001>006-013>018-027>032-041>047-110600-
NORTHWEST KANSAS

CITY           SKY/WX    TMP DP  RH WIND       PRES   REMARKS
GOODLAND       CLEAR     75  66  73 SE15      29.96R
HAYS           PTCLDY   N/A N/A N/A SE15      29.96S
HILL CITY      MOCLDY    73  68  84 SE10      29.96R
RUSSELL        CLEAR     72  66  81 S20G28    29.94F
$$

KSZ061>065-074>080-084>089-110600-
SOUTHWEST KANSAS

CITY           SKY/WX    TMP DP  RH WIND       PRES   REMARKS
DODGE CITY     CLEAR     74  69  85 SE16      29.99R
ELKHART          N/A     78  51  38 S14         N/A
GARDEN CITY    CLEAR     77  65  66 SE14      29.97R
GREAT BEND     PTCLDY    72  66  83 SE16G22   29.97R
LIBERAL        CLEAR     79  52  38 S13       30.01R
$$

KSZ066>073-081>083-090>101-110600-
SOUTHEAST KANSAS

CITY           SKY/WX    TMP DP  RH WIND       PRES   REMARKS
CHANUTE        CLEAR     70  67  90 SE7       30.06R
COFFEYVILLE    MOCLDY    72  67  84 SE9       30.05S
HUTCHINSON     CLEAR     73  67  81 SE14      29.99S
MEDICINE LODGE   N/A     73  71  93 SE10      29.99R
NEWTON         MOCLDY    72  63  73 SE14      30.04S
PARSONS        MOCLDY    72  65  78 SE5       30.07R
WICHITA INTL   PTCLDY    72  67  84 SE10      30.00S
WICHITA JABRA  CLEAR     71  67  87 SE13      30.01S
WINFIELD       CLEAR     71  69  93 SE8       30.03S
$$

KSZ007>012-019>026-033>040-048>060-102>105-110600-
NORTHEAST KANSAS

CITY           SKY/WX    TMP DP  RH WIND       PRES   REMARKS
CONCORDIA      CLEAR     74  66  76 SE16      29.99S
EMPORIA        CLEAR     70  67  90 S8        30.04R
LAWRENCE       CLEAR     70  64  81 SE6       30.06R
MANHATTAN      CLEAR     72  64  76 E3        30.02R
OLATHE IND     CLEAR     71  62  73 SE9       30.08R
OLATHE EXE     CLEAR     70  63  78 SE7       30.07R
SALINA         CLEAR     76  67  73 SE13      29.99R
TOPEKA BILLARD CLEAR     74  65  73 SE8       30.05R
TOPEKA FORBES  CLEAR     73  65  75 SE9       30.05R
$$


USA.gov is the U.S. government's official web portal to all federal, state and local government web resources and services.